Elk Mountain, WY

6:32 AM MST on December 13, 2019 (GMT -0700)
Elk Mountain

Weather History for KEHY - October, 2019

Change the Weather History Date:

Saturday, October 19, 2019

  Actual Average (KSAA) Record (KSAA)
Temperature  
Mean Temperature 39 °F -  
Max Temperature 48 °F 57 °F 69 °F (2017)
Min Temperature 30 °F 26 °F 24 °F (2016)
Degree Days  
Heating Degree Days 26    
Moisture  
Dew Point 16 °F    
Average Humidity 46    
Maximum Humidity 87    
Minimum Humidity 16    
Precipitation  
Precipitation 0.00 in - - ()
Sea Level Pressure  
Sea Level Pressure 29.81 in    
Wind  
Wind Speed 22 mph ()    
Max Wind Speed 33 mph    
Max Gust Speed 41 mph    
Visibility 8.7 miles    
Events      
Averages and records for this station are not official NWS values.
T = Trace of Precipitation, MM = Missing Value Source: Averaged Metar Reports

Daily Weather History Graph

Daily Weather History Graph

Search for Another Location

Airport or City:

Astronomy

Oct. 19, 2019 Rise Set
Actual Time 7:22 AM MDT 6:18 PM MDT
Civil Twilight 6:54 AM MDT 6:46 PM MDT
Nautical Twilight 6:21 AM MDT 7:18 PM MDT
Astronomical Twilight 5:49 AM MDT 7:51 PM MDT
Moon 10:26 PM MDT (10/19) 1:00 PM MDT (10/19)
Length of Visible Light 11h 52m
Length of Day
10h 56m
Waning Gibbous, 69% of the Moon is Illuminated
Oct 19
Waning Gibbous
Oct 21
Last Quarter
Oct 27
New
Nov 4
First Quarter
Nov 12
Full

Hourly Weather History & Observations

Time (MDT) Temp. Windchill Dew Point Humidity Pressure Visibility Wind Dir Wind Speed Gust Speed Precip Events Conditions
12:10 AM 33.8 °F 19.4 °F 14.0 °F 44% 29.88 in 10.0 mi West 33.4 mph 40.3 mph N/A   Clear
12:30 AM 33.8 °F 20.1 °F 15.8 °F 48% 29.88 in 10.0 mi West 29.9 mph 39.1 mph N/A   Clear
12:50 AM 33.8 °F 20.1 °F 15.8 °F 48% 29.88 in 10.0 mi WSW 29.9 mph 38.0 mph N/A   Clear
1:10 AM 33.8 °F 19.6 °F 17.6 °F 52% 29.88 in 10.0 mi WSW 32.2 mph 38.0 mph N/A   Clear
1:30 AM 33.8 °F 20.1 °F 17.6 °F 52% 29.88 in 10.0 mi WSW 29.9 mph 41.4 mph N/A   Clear
1:50 AM 32.0 °F 17.0 °F 17.6 °F 55% 29.90 in 10.0 mi WSW 33.4 mph 41.4 mph N/A   Clear
2:10 AM 33.8 °F 19.6 °F 17.6 °F 52% 29.90 in 10.0 mi WSW 32.2 mph 38.0 mph N/A   Clear
2:30 AM 32.0 °F 17.9 °F 17.6 °F 55% 29.90 in 10.0 mi WSW 28.8 mph 35.7 mph N/A   Clear
2:50 AM 32.0 °F 18.6 °F 17.6 °F 55% 29.90 in 10.0 mi WSW 25.3 mph 33.4 mph N/A   Clear
3:10 AM 32.0 °F 18.9 °F 17.6 °F 55% 29.90 in 10.0 mi WSW 24.2 mph 31.1 mph N/A   Clear
3:30 AM 32.0 °F 18.6 °F 17.6 °F 55% 29.90 in 10.0 mi WSW 25.3 mph 33.4 mph N/A   Mostly Cloudy
3:50 AM 32.0 °F 18.9 °F 17.6 °F 55% 29.90 in 10.0 mi WSW 24.2 mph 34.5 mph N/A   Scattered Clouds
4:10 AM 33.8 °F 20.5 °F 17.6 °F 52% 29.90 in 10.0 mi WSW 27.6 mph 32.2 mph N/A   Mostly Cloudy
4:30 AM 33.8 °F 21.3 °F 17.6 °F 52% 29.90 in 10.0 mi WSW 24.2 mph 33.4 mph N/A   Overcast
4:50 AM 33.8 °F 21.3 °F 17.6 °F 52% 29.91 in 10.0 mi WSW 24.2 mph 32.2 mph N/A   Overcast
5:10 AM 33.8 °F 22.2 °F 17.6 °F 52% 29.92 in 10.0 mi WSW 20.7 mph 31.1 mph N/A   Overcast
5:30 AM 33.8 °F 22.2 °F 17.6 °F 52% 29.92 in 10.0 mi WSW 20.7 mph 28.8 mph N/A   Mostly Cloudy
5:50 AM 32.0 °F 20.8 °F 17.6 °F 55% 29.93 in 10.0 mi WSW 17.3 mph 23.0 mph N/A   Clear
6:10 AM 32.0 °F 20.5 °F 17.6 °F 55% 29.93 in 10.0 mi WSW 18.4 mph 21.9 mph N/A   Scattered Clouds
6:30 AM 33.8 °F 22.8 °F 17.6 °F 52% 29.92 in 10.0 mi WSW 18.4 mph - N/A   Mostly Cloudy
6:50 AM 33.8 °F 23.2 °F 17.6 °F 52% 29.91 in 10.0 mi WSW 17.3 mph 25.3 mph N/A   Overcast
7:10 AM 33.8 °F 23.2 °F 15.8 °F 48% 29.92 in 10.0 mi WSW 17.3 mph 24.2 mph N/A   Mostly Cloudy
7:30 AM 33.8 °F 24.3 °F 15.8 °F 48% 29.92 in 10.0 mi WSW 13.8 mph 23.0 mph N/A   Overcast
7:50 AM 35.6 °F 25.5 °F 15.8 °F 44% 29.91 in 10.0 mi WSW 17.3 mph 24.2 mph N/A   Overcast
8:10 AM 35.6 °F 26.2 °F 15.8 °F 44% 29.91 in 10.0 mi SW 15.0 mph 20.7 mph N/A   Mostly Cloudy
8:30 AM 35.6 °F 25.9 °F 15.8 °F 44% 29.91 in 10.0 mi SW 16.1 mph 26.5 mph N/A   Scattered Clouds
8:50 AM 35.6 °F 24.2 °F 17.6 °F 48% 29.91 in 10.0 mi WSW 21.9 mph 31.1 mph N/A   Scattered Clouds
9:10 AM 37.4 °F 27.5 °F 15.8 °F 41% 29.91 in 10.0 mi WSW 18.4 mph 31.1 mph N/A   Clear
9:30 AM 37.4 °F 27.5 °F 15.8 °F 41% 29.92 in 10.0 mi WSW 18.4 mph 27.6 mph N/A   Mostly Cloudy
9:50 AM 39.2 °F 28.7 °F 17.6 °F 42% 29.91 in 10.0 mi WSW 23.0 mph 31.1 mph N/A   Mostly Cloudy
10:10 AM 41.0 °F 31.6 °F 15.8 °F 36% 29.91 in 10.0 mi WSW 20.7 mph 29.9 mph N/A   Mostly Cloudy
10:30 AM 37.4 °F 26.6 °F 15.8 °F 41% 29.90 in 10.0 mi SW 21.9 mph 27.6 mph N/A   Overcast
10:50 AM 37.4 °F 26.6 °F 17.6 °F 45% 29.89 in 10.0 mi WSW 21.9 mph 29.9 mph N/A   Overcast
11:10 AM 41.0 °F 30.9 °F 17.6 °F 39% 29.88 in 10.0 mi WSW 24.2 mph 28.8 mph N/A   Mostly Cloudy
11:30 AM 42.8 °F 33.1 °F 14.0 °F 31% 29.88 in 10.0 mi WSW 25.3 mph 32.2 mph N/A   Mostly Cloudy
11:50 AM 42.8 °F 32.7 °F 14.0 °F 31% 29.87 in 10.0 mi WSW 27.6 mph 34.5 mph N/A   Overcast
12:10 PM 42.8 °F 33.3 °F 12.2 °F 29% 29.86 in 10.0 mi WSW 24.2 mph 36.8 mph N/A   Mostly Cloudy
12:30 PM 44.6 °F 36.6 °F 10.4 °F 25% 29.85 in 10.0 mi WSW 19.6 mph 33.4 mph N/A   Scattered Clouds
12:50 PM 42.8 °F 32.9 °F 10.4 °F 27% 29.84 in 10.0 mi WSW 26.5 mph 32.2 mph N/A   Scattered Clouds
1:10 PM 44.6 °F 35.5 °F 10.4 °F 25% 29.83 in 10.0 mi WSW 25.3 mph 32.2 mph N/A   Mostly Cloudy
1:50 PM 44.6 °F 36.1 °F 10.4 °F 25% 29.80 in 10.0 mi WSW 21.9 mph 27.6 mph N/A   Overcast
2:10 PM 44.6 °F 35.9 °F 10.4 °F 25% 29.79 in 10.0 mi WSW 23.0 mph 29.9 mph N/A   Mostly Cloudy
2:30 PM 44.6 °F 36.6 °F 10.4 °F 25% 29.78 in 10.0 mi SW 19.6 mph 34.5 mph N/A   Overcast
2:50 PM 44.6 °F 36.4 °F 8.6 °F 23% 29.78 in 10.0 mi SW 20.7 mph 32.2 mph N/A   Overcast
3:30 PM 44.6 °F 37.2 °F 8.6 °F 23% 29.74 in 10.0 mi SW 17.3 mph 26.5 mph N/A   Mostly Cloudy
3:50 PM 48.2 °F - 3.2 °F 16% 29.73 in 10.0 mi WSW 27.6 mph 39.1 mph N/A   Scattered Clouds
4:10 PM 44.6 °F 36.6 °F 5.0 °F 20% 29.73 in 10.0 mi SW 19.6 mph 31.1 mph N/A   Scattered Clouds
4:30 PM 44.6 °F 35.5 °F 5.0 °F 20% 29.72 in 10.0 mi SW 25.3 mph 34.5 mph N/A   Scattered Clouds
4:50 PM 44.6 °F 35.9 °F 6.8 °F 21% 29.72 in 10.0 mi SW 23.0 mph 34.5 mph N/A   Clear
5:10 PM 44.6 °F 36.4 °F 6.8 °F 21% 29.71 in 10.0 mi SW 20.7 mph 29.9 mph N/A   Clear
5:30 PM 44.6 °F 36.1 °F 6.8 °F 21% 29.70 in 10.0 mi SW 21.9 mph 29.9 mph N/A   Mostly Cloudy
5:50 PM 44.6 °F 36.4 °F 6.8 °F 21% 29.71 in 10.0 mi SSW 20.7 mph 40.3 mph N/A   Overcast
6:10 PM 44.6 °F 36.6 °F 8.6 °F 23% 29.71 in 10.0 mi SSW 19.6 mph 29.9 mph N/A   Overcast
6:30 PM 42.8 °F 32.3 °F 10.4 °F 27% 29.71 in 10.0 mi SW 29.9 mph 38.0 mph N/A   Overcast
6:50 PM 41.0 °F 31.6 °F 15.8 °F 36% 29.70 in 10.0 mi WSW 20.7 mph 31.1 mph N/A   Overcast
7:10 PM 41.0 °F 32.5 °F 15.8 °F 36% 29.69 in 10.0 mi SW 17.3 mph 21.9 mph N/A   Overcast
7:30 PM 42.8 °F 34.8 °F 12.2 °F 29% 29.69 in 10.0 mi SW 17.3 mph 28.8 mph N/A   Overcast
7:50 PM 42.8 °F 37.5 °F 12.2 °F 29% 29.68 in 10.0 mi SW 9.2 mph 24.2 mph N/A   Overcast
8:10 PM 39.2 °F 29.0 °F 23.0 °F 52% 29.69 in 10.0 mi WNW 21.9 mph - N/A   Overcast
8:30 PM 37.4 °F 28.5 °F 26.6 °F 65% 29.70 in 10.0 mi West 15.0 mph - N/A   Overcast
8:50 PM 35.6 °F 26.6 °F 28.4 °F 75% 29.68 in 5.0 mi West 13.8 mph - N/A   Overcast
9:10 PM 33.8 °F 25.3 °F 30.2 °F 87% 29.68 in 2.5 mi West 11.5 mph - N/A   Overcast
9:30 PM 33.8 °F 24.3 °F 30.2 °F 87% 29.67 in 1.5 mi West 13.8 mph - N/A   Overcast
9:50 PM 32.0 °F 20.5 °F 28.4 °F 87% 29.68 in 0.5 mi West 18.4 mph - N/A   Overcast
10:10 PM 32.0 °F 23.6 °F 28.4 °F 87% 29.66 in 0.2 mi WSW 10.4 mph - N/A   Overcast
10:30 PM 32.0 °F 21.6 °F 28.4 °F 87% 29.66 in 0.5 mi West 15.0 mph - N/A   Overcast
10:50 PM 32.0 °F 21.6 °F 28.4 °F 87% 29.66 in 0.2 mi West 15.0 mph - N/A   Overcast
11:10 PM 32.0 °F 20.1 °F 28.4 °F 87% 29.66 in 0.8 mi WSW 19.6 mph 24.2 mph N/A   Overcast
11:30 PM 30.2 °F 14.9 °F 26.6 °F 86% 29.66 in 0.5 mi West 31.1 mph 35.7 mph N/A   Overcast
11:50 PM 30.2 °F 16.2 °F 26.6 °F 86% 29.66 in 0.5 mi WSW 25.3 mph 33.4 mph N/A   Overcast